Location: Unspecified
(0.0000°N, 0.0000°E)
Time: 13:36:01
(UTC+00:00)

Vanguard 1 Rocket - Pass Details

Date: 15 December 2017
Orbit: 656 x 4222 km, 34.3° (Epoch: 15 January)

Event Time Altitude Azimuth Distance (km) Brightness Sun altitude
Rises 15:28:35 0° 289° (WNW) 3,466 10.9 33.3°
Reaches altitude 10° 15:32:22 10° 317° (NW) 2,932 10.3 32.4°
Maximum altitude 15:35:46 14° 346° (NNW) 3,070 10.1 31.7°
Drops below altitude 10° 15:40:05 10° 13° (NNE) 3,899 10.4 30.7°
Sets 15:47:04 0° 36° (NE) 5,786 11.0 29.2°
